CCA242 ZYHB-ZBTJ

Flight info

Callsign CCA242
Flight time 2h 3m
Altitude 38000
Route DUK07D DUKIR W655 NIMEM W205 NULRA A588 VENOS W573 DBL W5 EKULI W576 OVTUP W55 DUMAP DUMAP8R
Aircraft B738/M-SDE2E3FGHIRWXY/LB1

Departure

Time 2026-04-26 14:13
Airport Harbin Taiping International Airport (ZYHB)

Arrival

Time 2026-04-26 16:17
Airport Tianjin Binhai International Airport (ZBTJ)
Time Latitude Longitude Altitude Speed Heading
2026-04-26 13:37 45.62175 126.23995 460 ft 0 kts 248°
2026-04-26 14:03 45.62175 126.23996 458 ft 0 kts 248°
2026-04-26 14:03 45.62178 126.24008 460 ft 3 kts 248°
2026-04-26 14:03 45.62185 126.24033 460 ft 3 kts 248°
2026-04-26 14:03 45.62192 126.24059 457 ft 3 kts 248°
2026-04-26 14:04 45.62199 126.24084 460 ft 3 kts 248°
2026-04-26 14:04 45.62206 126.24109 459 ft 3 kts 248°
2026-04-26 14:04 45.62213 126.24134 459 ft 3 kts 248°
2026-04-26 14:04 45.62220 126.24159 459 ft 2 kts 248°
2026-04-26 14:05 45.62226 126.24181 459 ft 2 kts 248°
2026-04-26 14:05 45.62232 126.24203 459 ft 2 kts 248°
2026-04-26 14:05 45.62238 126.24225 458 ft 2 kts 248°
2026-04-26 14:05 45.62244 126.24247 459 ft 2 kts 248°
2026-04-26 14:06 45.62249 126.24265 461 ft 1 kts 248°
2026-04-26 14:06 45.62255 126.24284 459 ft 1 kts 227°
2026-04-26 14:09 45.62253 126.24281 459 ft 5 kts 225°
2026-04-26 14:09 45.62194 126.24252 459 ft 11 kts 184°
2026-04-26 14:09 45.62110 126.24305 458 ft 12 kts 134°
2026-04-26 14:09 45.62132 126.24461 458 ft 23 kts 42°
2026-04-26 14:10 45.62282 126.24640 455 ft 34 kts 39°
2026-04-26 14:10 45.62439 126.24821 455 ft 18 kts 40°
2026-04-26 14:10 45.62548 126.24951 454 ft 24 kts 40°
2026-04-26 14:10 45.62693 126.25120 454 ft 30 kts 42°
2026-04-26 14:11 45.63022 126.25508 451 ft 29 kts 38°
2026-04-26 14:11 45.63173 126.25682 451 ft 29 kts 39°
2026-04-26 14:11 45.63334 126.25862 449 ft 17 kts 42°
2026-04-26 14:12 45.63383 126.25959 449 ft 14 kts 89°
2026-04-26 14:12 45.63348 126.26045 448 ft 15 kts 126°
2026-04-26 14:12 45.63240 126.26071 448 ft 1 kts 217°
2026-04-26 14:12 45.63229 126.26057 448 ft 5 kts 218°
2026-04-26 14:13 45.62709 126.25444 451 ft 119 kts 219°
2026-04-26 14:13 45.61889 126.24477 467 ft 184 kts 219°
2026-04-26 14:13 45.60867 126.23322 1362 ft 187 kts 217°
2026-04-26 14:14 45.60154 126.22553 1986 ft 194 kts 217°
2026-04-26 14:14 45.59064 126.21354 2745 ft 208 kts 218°
2026-04-26 14:14 45.57887 126.20090 3187 ft 218 kts 219°
2026-04-26 14:14 45.56664 126.18693 3543 ft 237 kts 224°
2026-04-26 14:15 45.55419 126.17057 3991 ft 248 kts 225°
2026-04-26 14:15 45.54111 126.15375 4455 ft 263 kts 224°
2026-04-26 14:15 45.52700 126.13628 5110 ft 272 kts 223°
2026-04-26 14:15 45.51170 126.12025 5990 ft 277 kts 205°
2026-04-26 14:16 45.49299 126.11373 6908 ft 278 kts 190°
2026-04-26 14:16 45.47362 126.11005 7599 ft 285 kts 189°
2026-04-26 14:16 45.45386 126.10635 7986 ft 288 kts 190°
2026-04-26 14:16 45.43387 126.10237 8703 ft 293 kts 190°
2026-04-26 14:17 45.41370 126.09814 9600 ft 291 kts 191°
2026-04-26 14:17 45.39349 126.09374 10294 ft 299 kts 192°
2026-04-26 14:17 45.37217 126.08894 10549 ft 322 kts 192°
2026-04-26 14:17 45.34923 126.08366 10753 ft 345 kts 192°
2026-04-26 14:18 45.32507 126.07810 11242 ft 356 kts 192°
2026-04-26 14:18 45.30053 126.07245 12025 ft 357 kts 192°
2026-04-26 14:18 45.27595 126.06679 12798 ft 359 kts 193°
2026-04-26 14:18 45.25117 126.06103 13533 ft 362 kts 193°
2026-04-26 14:19 45.22622 126.05522 14246 ft 365 kts 193°
2026-04-26 14:19 45.20108 126.04938 14936 ft 368 kts 193°
2026-04-26 14:19 45.17789 126.04399 15544 ft 370 kts 194°
2026-04-26 14:19 45.15133 126.03782 16249 ft 373 kts 194°
2026-04-26 14:20 45.12561 126.03185 16896 ft 376 kts 194°
2026-04-26 14:20 45.10002 126.02593 17523 ft 379 kts 194°
2026-04-26 14:20 45.07387 126.01987 18146 ft 382 kts 194°
2026-04-26 14:20 45.04754 126.01378 18739 ft 385 kts 194°
2026-04-26 14:21 45.02100 126.00764 19329 ft 388 kts 194°
2026-04-26 14:21 44.99426 126.00146 19893 ft 391 kts 194°
2026-04-26 14:21 44.96730 125.99524 20453 ft 394 kts 194°
2026-04-26 14:21 44.94015 125.98898 20941 ft 398 kts 194°
2026-04-26 14:22 44.91271 125.98265 21476 ft 400 kts 194°
2026-04-26 14:22 44.88512 125.97631 21980 ft 404 kts 194°
2026-04-26 14:22 44.85731 125.96992 22466 ft 406 kts 194°
2026-04-26 14:22 44.82930 125.96350 22942 ft 409 kts 194°
2026-04-26 14:23 44.80113 125.95705 23400 ft 412 kts 194°
2026-04-26 14:23 44.77267 125.95053 23840 ft 415 kts 194°
2026-04-26 14:23 44.74419 125.94401 24282 ft 417 kts 194°
2026-04-26 14:23 44.71539 125.93755 24693 ft 420 kts 194°
2026-04-26 14:24 44.68629 125.93116 25074 ft 424 kts 194°
2026-04-26 14:24 44.65706 125.92478 25446 ft 427 kts 194°
2026-04-26 14:24 44.62748 125.91833 25728 ft 432 kts 194°
2026-04-26 14:24 44.59747 125.91175 25887 ft 440 kts 194°
2026-04-26 14:25 44.56716 125.90512 26241 ft 442 kts 194°
2026-04-26 14:25 44.53683 125.89851 26729 ft 440 kts 195°
2026-04-26 14:25 44.50673 125.89196 27305 ft 436 kts 195°
2026-04-26 14:25 44.47676 125.88542 27724 ft 436 kts 195°
2026-04-26 14:26 44.44679 125.87886 28080 ft 437 kts 195°
2026-04-26 14:26 44.41671 125.87227 28370 ft 439 kts 195°
2026-04-26 14:26 44.38642 125.86565 28679 ft 441 kts 195°
2026-04-26 14:26 44.35602 125.85903 28993 ft 443 kts 195°
2026-04-26 14:27 44.32589 125.85248 29245 ft 445 kts 196°
2026-04-26 14:27 44.29528 125.84583 29490 ft 448 kts 196°
2026-04-26 14:27 44.26440 125.83913 29790 ft 449 kts 196°
2026-04-26 14:27 44.23318 125.83238 30123 ft 449 kts 196°
2026-04-26 14:28 44.20234 125.82570 30388 ft 450 kts 196°
2026-04-26 14:28 44.17124 125.81896 30586 ft 453 kts 195°
2026-04-26 14:28 44.14039 125.81275 30786 ft 457 kts 193°
2026-04-26 14:28 44.10854 125.80944 31076 ft 462 kts 188°
2026-04-26 14:29 44.07625 125.81149 31376 ft 472 kts 175°
2026-04-26 14:29 44.04490 125.82722 31621 ft 489 kts 155°
2026-04-26 14:29 44.01604 125.85153 32308 ft 479 kts 155°
2026-04-26 14:29 43.98690 125.87291 32759 ft 468 kts 165°
2026-04-26 14:30 43.95569 125.88249 32798 ft 456 kts 185°
2026-04-26 14:30 43.92436 125.88093 33199 ft 445 kts 191°
2026-04-26 14:30 43.89378 125.87669 33582 ft 440 kts 193°
2026-04-26 14:30 43.86351 125.87093 33812 ft 439 kts 194°
2026-04-26 14:31 43.83324 125.86440 34040 ft 439 kts 194°
2026-04-26 14:31 43.80306 125.85784 34256 ft 439 kts 195°
2026-04-26 14:31 43.77313 125.84960 34448 ft 437 kts 199°
2026-04-26 14:31 43.74413 125.83749 34620 ft 433 kts 206°
2026-04-26 14:32 43.71726 125.81923 34752 ft 429 kts 215°
2026-04-26 14:32 43.69213 125.79743 35062 ft 425 kts 218°
2026-04-26 14:32 43.66728 125.77523 35285 ft 425 kts 217°
2026-04-26 14:33 43.61489 125.73511 35457 ft 435 kts 211°
2026-04-26 14:33 43.58782 125.71675 35736 ft 433 kts 211°
2026-04-26 14:33 43.56080 125.69856 36010 ft 431 kts 211°
2026-04-26 14:33 43.53393 125.68026 36152 ft 432 kts 212°
2026-04-26 14:34 43.50728 125.66180 36229 ft 435 kts 212°
2026-04-26 14:34 43.48033 125.64289 36347 ft 436 kts 212°
2026-04-26 14:34 43.45329 125.62381 36527 ft 436 kts 212°
2026-04-26 14:34 43.42641 125.60478 36791 ft 433 kts 212°
2026-04-26 14:35 43.39973 125.58592 37161 ft 428 kts 213°
2026-04-26 14:35 43.37338 125.56730 37428 ft 426 kts 212°
2026-04-26 14:35 43.34696 125.54861 37491 ft 429 kts 213°
2026-04-26 14:36 43.29360 125.51092 37662 ft 432 kts 213°
2026-04-26 14:36 43.26688 125.49211 37850 ft 431 kts 212°
2026-04-26 14:36 43.24018 125.47336 37981 ft 431 kts 213°
2026-04-26 14:37 43.18655 125.43570 38005 ft 435 kts 212°
2026-04-26 14:37 43.13271 125.39799 38004 ft 434 kts 213°
2026-04-26 14:38 43.07902 125.36047 38007 ft 433 kts 213°
2026-04-26 14:38 43.02544 125.32308 38027 ft 432 kts 212°
2026-04-26 14:39 42.97194 125.28582 38008 ft 431 kts 213°
2026-04-26 14:39 42.91887 125.24893 38019 ft 430 kts 213°
2026-04-26 14:40 42.86557 125.21193 38023 ft 430 kts 213°
2026-04-26 14:40 42.81225 125.17496 38012 ft 430 kts 213°
2026-04-26 14:41 42.75913 125.13772 38022 ft 430 kts 213°
2026-04-26 14:41 42.70603 125.10037 38012 ft 430 kts 213°
2026-04-26 14:42 42.65285 125.06308 38020 ft 430 kts 213°
2026-04-26 14:42 42.59969 125.02591 38016 ft 430 kts 213°
2026-04-26 14:43 42.54648 124.98878 38020 ft 430 kts 213°
2026-04-26 14:43 42.49331 124.95178 38017 ft 430 kts 213°
2026-04-26 14:44 42.43997 124.91473 38012 ft 430 kts 213°
2026-04-26 14:44 42.38669 124.87777 38023 ft 430 kts 213°
2026-04-26 14:45 42.33369 124.84108 38009 ft 431 kts 213°
2026-04-26 14:45 42.28032 124.80420 38009 ft 431 kts 213°
2026-04-26 14:46 42.22695 124.76739 38028 ft 431 kts 213°
2026-04-26 14:46 42.17346 124.73060 38016 ft 431 kts 213°
2026-04-26 14:47 42.11995 124.69383 38020 ft 432 kts 213°
2026-04-26 14:47 42.06637 124.65705 38014 ft 432 kts 213°
2026-04-26 14:48 42.01278 124.62037 38025 ft 432 kts 213°
2026-04-26 14:48 41.95929 124.58353 38018 ft 432 kts 214°
2026-04-26 14:49 41.90706 124.54391 38025 ft 430 kts 217°
2026-04-26 14:49 41.85536 124.50331 38017 ft 431 kts 217°
2026-04-26 14:50 41.80355 124.46330 38011 ft 432 kts 216°
2026-04-26 14:50 41.75136 124.42354 38015 ft 432 kts 216°
2026-04-26 14:51 41.69904 124.38386 38020 ft 432 kts 216°
2026-04-26 14:51 41.64675 124.34428 38007 ft 432 kts 216°
2026-04-26 14:52 41.59443 124.30474 38027 ft 432 kts 216°
2026-04-26 14:52 41.54208 124.26523 38020 ft 432 kts 216°
2026-04-26 14:53 41.48973 124.22579 38019 ft 432 kts 216°
2026-04-26 14:53 41.43747 124.18648 38022 ft 431 kts 216°
2026-04-26 14:54 41.38511 124.14737 38011 ft 431 kts 215°
2026-04-26 14:54 41.33241 124.10920 38027 ft 431 kts 215°
2026-04-26 14:55 41.27960 124.07121 38027 ft 431 kts 215°
2026-04-26 14:55 41.22692 124.03322 38012 ft 431 kts 215°
2026-04-26 14:56 41.17436 123.99530 38022 ft 430 kts 215°
2026-04-26 14:56 41.12204 123.95762 38021 ft 430 kts 215°
2026-04-26 14:57 41.06955 123.91989 38024 ft 429 kts 215°
2026-04-26 14:57 41.01699 123.88216 38027 ft 429 kts 215°
2026-04-26 14:58 40.96449 123.84454 38022 ft 429 kts 215°
2026-04-26 14:58 40.91198 123.80701 38025 ft 428 kts 215°
2026-04-26 14:59 40.85958 123.76960 38012 ft 428 kts 215°
2026-04-26 14:59 40.80727 123.73209 38007 ft 427 kts 216°
2026-04-26 15:00 40.75556 123.69393 38029 ft 426 kts 216°
2026-04-26 15:00 40.70381 123.65569 38020 ft 427 kts 216°
2026-04-26 15:01 40.66071 123.62404 37993 ft 427 kts 216°
2026-04-26 15:01 40.60879 123.58605 38002 ft 426 kts 216°
2026-04-26 15:02 40.54857 123.54203 37997 ft 426 kts 216°
2026-04-26 15:02 40.50505 123.51026 37996 ft 426 kts 216°
2026-04-26 15:03 40.45327 123.47252 38000 ft 426 kts 216°
2026-04-26 15:03 40.40172 123.43499 37981 ft 426 kts 216°
2026-04-26 15:04 40.34976 123.39722 37986 ft 427 kts 216°
2026-04-26 15:04 40.29783 123.35955 37996 ft 427 kts 216°
2026-04-26 15:05 40.24580 123.32187 37989 ft 427 kts 216°
2026-04-26 15:05 40.19382 123.28430 37964 ft 428 kts 216°
2026-04-26 15:06 40.14167 123.24667 37990 ft 428 kts 216°
2026-04-26 15:06 40.08945 123.20904 37985 ft 429 kts 216°
2026-04-26 15:07 40.01108 123.15253 37987 ft 428 kts 216°
2026-04-26 15:07 39.95903 123.11461 37986 ft 428 kts 216°
2026-04-26 15:08 39.90708 123.07680 37979 ft 428 kts 216°
2026-04-26 15:08 39.85511 123.03906 37988 ft 427 kts 216°
2026-04-26 15:09 39.80317 123.00144 37978 ft 427 kts 216°
2026-04-26 15:09 39.75135 122.96400 37986 ft 426 kts 216°
2026-04-26 15:10 39.70826 122.93288 37956 ft 426 kts 216°
2026-04-26 15:10 39.64804 122.88948 37985 ft 426 kts 216°
2026-04-26 15:11 39.59615 122.85218 37977 ft 426 kts 216°
2026-04-26 15:11 39.54425 122.81493 37966 ft 426 kts 216°
2026-04-26 15:12 39.49233 122.77772 37985 ft 426 kts 216°
2026-04-26 15:12 39.44038 122.74054 37955 ft 427 kts 216°
2026-04-26 15:13 39.38838 122.70339 37977 ft 428 kts 216°
2026-04-26 15:13 39.33623 122.66619 37979 ft 428 kts 216°
2026-04-26 15:14 39.28400 122.62901 37966 ft 429 kts 216°
2026-04-26 15:14 39.23239 122.59066 37955 ft 427 kts 219°
2026-04-26 15:15 39.18219 122.54986 37983 ft 426 kts 219°
2026-04-26 15:15 39.13213 122.50917 37970 ft 427 kts 219°
2026-04-26 15:16 39.08159 122.46872 37965 ft 428 kts 219°
2026-04-26 15:16 39.03100 122.42847 37979 ft 428 kts 219°
2026-04-26 15:17 38.98886 122.39496 37970 ft 427 kts 219°
2026-04-26 15:17 38.93394 122.34312 37916 ft 404 kts 243°
2026-04-26 15:18 38.91225 122.27861 38002 ft 389 kts 259°
2026-04-26 15:18 38.90852 122.24453 37892 ft 386 kts 277°
2026-04-26 15:18 38.91242 122.21081 38035 ft 381 kts 280°
2026-04-26 15:19 38.91986 122.14303 37953 ft 385 kts 276°
2026-04-26 15:19 38.92392 122.07430 37959 ft 387 kts 276°
2026-04-26 15:20 38.92849 122.00569 37982 ft 388 kts 276°
2026-04-26 15:20 38.93371 121.93653 37977 ft 389 kts 277°
2026-04-26 15:21 38.93906 121.86748 37966 ft 389 kts 277°
2026-04-26 15:21 38.94440 121.79840 37963 ft 388 kts 277°
2026-04-26 15:22 38.94968 121.72936 37966 ft 388 kts 277°
2026-04-26 15:22 38.95490 121.66042 37961 ft 388 kts 277°
2026-04-26 15:23 38.95508 121.62579 37895 ft 392 kts 261°
2026-04-26 15:23 38.94621 121.59260 38019 ft 397 kts 250°
2026-04-26 15:23 38.91639 121.53180 37939 ft 414 kts 231°
2026-04-26 15:24 38.89279 121.50938 38057 ft 424 kts 220°
2026-04-26 15:24 38.86737 121.48977 37951 ft 429 kts 219°
2026-04-26 15:24 38.81723 121.44990 37944 ft 425 kts 223°
2026-04-26 15:25 38.77662 121.41390 37954 ft 424 kts 223°
2026-04-26 15:25 38.71995 121.36456 37956 ft 424 kts 222°
2026-04-26 15:26 38.67082 121.32293 37950 ft 423 kts 222°
2026-04-26 15:26 38.62175 121.28151 37961 ft 422 kts 222°
2026-04-26 15:27 38.57877 121.23405 37948 ft 392 kts 248°
2026-04-26 15:27 38.55995 121.17028 37993 ft 381 kts 263°
2026-04-26 15:28 38.55728 121.13679 37913 ft 378 kts 278°
2026-04-26 15:28 38.56231 121.10399 38021 ft 377 kts 284°
2026-04-26 15:28 38.57556 121.03847 37944 ft 383 kts 283°
2026-04-26 15:29 38.58571 120.97182 37956 ft 386 kts 281°
2026-04-26 15:30 38.60663 120.83698 37972 ft 386 kts 282°
2026-04-26 15:30 38.61761 120.76987 37961 ft 385 kts 282°
2026-04-26 15:31 38.63397 120.66962 37957 ft 383 kts 282°
2026-04-26 15:32 38.64835 120.58095 37954 ft 381 kts 282°
2026-04-26 15:32 38.66114 120.50357 37965 ft 380 kts 283°
2026-04-26 15:33 38.67206 120.43766 37981 ft 378 kts 282°
2026-04-26 15:33 38.68291 120.37169 37970 ft 378 kts 283°
2026-04-26 15:34 38.69363 120.30629 37980 ft 377 kts 283°
2026-04-26 15:34 38.69677 120.27293 37912 ft 382 kts 268°
2026-04-26 15:34 38.69096 120.23974 38038 ft 386 kts 257°
2026-04-26 15:35 38.66617 120.17746 37968 ft 403 kts 239°
2026-04-26 15:35 38.64535 120.15254 38016 ft 417 kts 225°
2026-04-26 15:35 38.62081 120.13211 37938 ft 424 kts 221°
2026-04-26 15:36 38.56994 120.09401 37951 ft 422 kts 222°
2026-04-26 15:36 38.52115 120.05330 37965 ft 418 kts 224°
2026-04-26 15:37 38.47224 120.01276 37964 ft 420 kts 223°
2026-04-26 15:37 38.42444 119.97076 37937 ft 409 kts 233°
2026-04-26 15:38 38.40658 119.94416 38012 ft 393 kts 242°
2026-04-26 15:38 38.39020 119.91618 38010 ft 397 kts 240°
2026-04-26 15:38 38.35236 119.86349 37962 ft 407 kts 234°
2026-04-26 15:39 38.31267 119.81194 37947 ft 408 kts 236°
2026-04-26 15:39 38.28664 119.77666 37970 ft 408 kts 237°
2026-04-26 15:40 38.23556 119.70557 37950 ft 409 kts 237°
2026-04-26 15:40 38.19721 119.65205 37961 ft 409 kts 237°
2026-04-26 15:41 38.15880 119.59867 37964 ft 409 kts 237°
2026-04-26 15:41 38.14151 119.57046 37905 ft 396 kts 251°
2026-04-26 15:41 38.13307 119.53841 38002 ft 377 kts 266°
2026-04-26 15:42 38.13242 119.47287 37976 ft 370 kts 281°
2026-04-26 15:42 38.13928 119.44159 37965 ft 368 kts 292°
2026-04-26 15:42 38.15010 119.41219 38007 ft 368 kts 295°
2026-04-26 15:43 38.17192 119.35309 37951 ft 370 kts 291°
2026-04-26 15:44 38.19980 119.26204 37963 ft 371 kts 291°
2026-04-26 15:44 38.22880 119.17048 37982 ft 372 kts 291°
2026-04-26 15:45 38.25845 119.07846 37966 ft 374 kts 291°
2026-04-26 15:46 38.28788 118.98690 37988 ft 374 kts 292°
2026-04-26 15:46 38.30106 118.94584 37966 ft 374 kts 291°
2026-04-26 15:47 38.33702 118.83344 37965 ft 374 kts 291°
2026-04-26 15:48 38.35326 118.78256 37990 ft 373 kts 291°
2026-04-26 15:48 38.37279 118.72133 37990 ft 372 kts 291°
2026-04-26 15:49 38.39231 118.66030 37990 ft 372 kts 291°
2026-04-26 15:49 38.41191 118.59884 37402 ft 377 kts 291°
2026-04-26 15:49 38.42475 118.55853 36772 ft 368 kts 291°
2026-04-26 15:50 38.43129 118.53796 36215 ft 371 kts 291°
2026-04-26 15:50 38.44095 118.50753 35644 ft 368 kts 291°
2026-04-26 15:50 38.45055 118.47726 34977 ft 368 kts 291°
2026-04-26 15:50 38.46014 118.44702 34349 ft 367 kts 291°
2026-04-26 15:51 38.46970 118.41683 33640 ft 367 kts 291°
2026-04-26 15:51 38.47924 118.38668 33222 ft 360 kts 291°
2026-04-26 15:51 38.48843 118.35755 32798 ft 352 kts 291°
2026-04-26 15:51 38.49762 118.32843 32220 ft 351 kts 291°
2026-04-26 15:52 38.50669 118.29968 31370 ft 357 kts 291°
2026-04-26 15:52 38.51594 118.27040 30701 ft 357 kts 291°
2026-04-26 15:52 38.52519 118.24083 29957 ft 359 kts 291°
2026-04-26 15:52 38.53151 118.22066 29385 ft 362 kts 291°
2026-04-26 15:53 38.54396 118.18105 28293 ft 364 kts 291°
2026-04-26 15:53 38.55339 118.15101 27419 ft 367 kts 291°
2026-04-26 15:53 38.56301 118.12018 26523 ft 383 kts 291°
2026-04-26 15:53 38.57318 118.08752 25671 ft 408 kts 291°
2026-04-26 15:54 38.58393 118.05308 24869 ft 420 kts 291°
2026-04-26 15:54 38.59470 118.01872 24157 ft 414 kts 291°
2026-04-26 15:54 38.60587 117.98483 23183 ft 415 kts 292°
2026-04-26 15:54 38.61780 117.95106 22203 ft 417 kts 294°
2026-04-26 15:55 38.63030 117.91774 21452 ft 413 kts 294°
2026-04-26 15:55 38.64258 117.88477 20778 ft 407 kts 294°
2026-04-26 15:55 38.65438 117.85209 20056 ft 403 kts 294°
2026-04-26 15:55 38.66585 117.81958 19310 ft 399 kts 293°
2026-04-26 15:56 38.67718 117.78721 18541 ft 396 kts 294°
2026-04-26 15:56 38.68838 117.75521 17815 ft 393 kts 294°
2026-04-26 15:56 38.69946 117.72365 17043 ft 387 kts 294°
2026-04-26 15:56 38.71046 117.69231 16316 ft 382 kts 294°
2026-04-26 15:57 38.72115 117.66186 15649 ft 367 kts 294°
2026-04-26 15:57 38.73144 117.63255 15038 ft 359 kts 294°
2026-04-26 15:57 38.74171 117.60327 14433 ft 360 kts 294°
2026-04-26 15:57 38.74849 117.58391 14027 ft 360 kts 294°
2026-04-26 15:58 38.76236 117.54428 13213 ft 370 kts 294°
2026-04-26 15:58 38.77292 117.51408 12574 ft 371 kts 294°
2026-04-26 15:58 38.78330 117.48438 11947 ft 368 kts 294°
2026-04-26 15:58 38.79369 117.45462 11322 ft 364 kts 294°
2026-04-26 15:59 38.80536 117.42649 11161 ft 349 kts 303°
2026-04-26 15:59 38.82268 117.40562 10916 ft 342 kts 332°
2026-04-26 15:59 38.84461 117.39594 10949 ft 326 kts 340°
2026-04-26 15:59 38.86545 117.38550 10707 ft 315 kts 333°
2026-04-26 16:00 38.88451 117.37346 10581 ft 297 kts 330°
2026-04-26 16:00 38.90248 117.36136 10454 ft 286 kts 330°
2026-04-26 16:00 38.91986 117.34982 10333 ft 279 kts 330°
2026-04-26 16:00 38.93738 117.33852 10243 ft 287 kts 332°
2026-04-26 16:01 38.95540 117.32715 10109 ft 287 kts 332°
2026-04-26 16:01 38.97315 117.31606 9952 ft 280 kts 332°
2026-04-26 16:01 38.99066 117.30516 9617 ft 280 kts 332°
2026-04-26 16:01 39.00806 117.29421 9354 ft 277 kts 332°
2026-04-26 16:02 39.02534 117.28321 9058 ft 277 kts 332°
2026-04-26 16:02 39.04256 117.27224 8769 ft 276 kts 332°
2026-04-26 16:02 39.05971 117.26131 8488 ft 275 kts 332°
2026-04-26 16:02 39.07107 117.25409 8297 ft 274 kts 332°
2026-04-26 16:03 39.09451 117.24149 7862 ft 275 kts 351°
2026-04-26 16:03 39.11317 117.24463 7643 ft 271 kts 25°
2026-04-26 16:03 39.12812 117.25862 7285 ft 272 kts 50°
2026-04-26 16:03 39.13812 117.27893 7074 ft 266 kts 65°
2026-04-26 16:04 39.14585 117.30058 6755 ft 267 kts 67°
2026-04-26 16:04 39.15367 117.32225 6485 ft 266 kts 65°
2026-04-26 16:04 39.16186 117.34361 6210 ft 265 kts 65°
2026-04-26 16:04 39.17005 117.36485 5934 ft 265 kts 65°
2026-04-26 16:05 39.17822 117.38611 5655 ft 263 kts 65°
2026-04-26 16:05 39.18629 117.40721 5385 ft 262 kts 66°
2026-04-26 16:05 39.19651 117.42635 5033 ft 262 kts 39°
2026-04-26 16:05 39.21260 117.43554 5046 ft 247 kts 13°
2026-04-26 16:06 39.22942 117.43586 4915 ft 238 kts 348°
2026-04-26 16:06 39.24423 117.42832 4847 ft 221 kts 332°
2026-04-26 16:06 39.25752 117.41901 4673 ft 214 kts 332°
2026-04-26 16:06 39.27034 117.40972 4589 ft 210 kts 330°
2026-04-26 16:07 39.28317 117.40022 4490 ft 215 kts 330°
2026-04-26 16:07 39.29627 117.39044 4256 ft 220 kts 330°
2026-04-26 16:07 39.30952 117.38051 4114 ft 218 kts 330°
2026-04-26 16:07 39.32252 117.37071 3997 ft 215 kts 330°
2026-04-26 16:08 39.33579 117.36067 3401 ft 230 kts 330°
2026-04-26 16:08 39.34494 117.35369 3267 ft 221 kts 330°
2026-04-26 16:08 39.36202 117.34054 3087 ft 215 kts 330°
2026-04-26 16:08 39.37539 117.33237 2945 ft 211 kts 358°
2026-04-26 16:09 39.38932 117.33522 3018 ft 204 kts 19°
2026-04-26 16:09 39.40365 117.33620 2954 ft 211 kts 346°
2026-04-26 16:09 39.41597 117.32615 2972 ft 215 kts 308°
2026-04-26 16:09 39.42164 117.30862 2975 ft 212 kts 271°
2026-04-26 16:10 39.41853 117.29050 2976 ft 206 kts 233°
2026-04-26 16:10 39.40850 117.27786 3003 ft 201 kts 213°
2026-04-26 16:10 39.39711 117.26704 2978 ft 205 kts 212°
2026-04-26 16:10 39.38561 117.25623 2983 ft 205 kts 212°
2026-04-26 16:11 39.37403 117.24541 2972 ft 205 kts 212°
2026-04-26 16:11 39.36242 117.23459 2983 ft 205 kts 212°
2026-04-26 16:11 39.35090 117.22385 2968 ft 203 kts 212°
2026-04-26 16:11 39.33872 117.21548 2948 ft 195 kts 188°
2026-04-26 16:12 39.32602 117.21772 2971 ft 186 kts 145°
2026-04-26 16:12 39.31583 117.22808 2997 ft 190 kts 144°
2026-04-26 16:12 39.29104 117.24169 2966 ft 194 kts 149°
2026-04-26 16:13 39.27951 117.24992 2972 ft 185 kts 150°
2026-04-26 16:13 39.26828 117.25731 2840 ft 177 kts 152°
2026-04-26 16:13 39.25741 117.26409 2610 ft 173 kts 152°
2026-04-26 16:13 39.24637 117.27091 2387 ft 178 kts 152°
2026-04-26 16:14 39.23524 117.27776 2152 ft 174 kts 152°
2026-04-26 16:14 39.22461 117.28431 1935 ft 163 kts 153°
2026-04-26 16:14 39.20445 117.29673 1502 ft 158 kts 153°
2026-04-26 16:15 39.19458 117.30281 1291 ft 158 kts 154°
2026-04-26 16:15 39.18470 117.30891 1081 ft 157 kts 154°
2026-04-26 16:15 39.17484 117.31511 829 ft 156 kts 154°
2026-04-26 16:16 39.15550 117.32731 469 ft 156 kts 155°
2026-04-26 16:16 39.14571 117.33325 246 ft 155 kts 155°
2026-04-26 16:16 39.13597 117.33910 36 ft 153 kts 155°
2026-04-26 16:16 39.12718 117.34440 19 ft 117 kts 154°
2026-04-26 16:17 39.12211 117.34756 19 ft 45 kts 154°
2026-04-26 16:17 39.12036 117.34864 20 ft 26 kts 156°
2026-04-26 16:17 39.11958 117.34911 20 ft 11 kts 152°
2026-04-26 16:17 39.11885 117.34975 22 ft 16 kts 140°
2026-04-26 16:18 39.11805 117.35088 20 ft 17 kts 128°
2026-04-26 16:18 39.11853 117.35237 18 ft 16 kts 330°
2026-04-26 16:19 39.12029 117.35128 18 ft 13 kts 333°
2026-04-26 16:19 39.12108 117.35149 18 ft 13 kts 52°
2026-04-26 16:19 39.12175 117.35323 18 ft 13 kts 64°
2026-04-26 16:20 39.12227 117.35461 18 ft 13 kts 64°
2026-04-26 16:20 39.12357 117.35574 18 ft 12 kts 33°
2026-04-26 16:20 39.12426 117.35626 18 ft 12 kts 10°
2026-04-26 16:21 39.12496 117.35637 20 ft 9 kts 29°
2026-04-26 16:21 39.12507 117.35654 18 ft 1 kts 65°
2026-04-26 16:21 39.12510 117.35675 18 ft 3 kts 85°
2026-04-26 16:21 39.12511 117.35694 18 ft 2 kts 91°
2026-04-26 16:22 39.12510 117.35712 18 ft 0 kts 92°
2026-04-26 16:22 39.12510 117.35713 18 ft 0 kts 92°